Weather in Minsk Mazowiecki

Poland     52°10′46″N   21°33′55″E
temp.,
°C
wind,
m/s
gust,
m/s
humid.,
%
clouds,
%
prec.,
mm/h
press.,
hPa
HPBL,
m
22 april, thu
thu2223:00+8wsw347812 0.0 101053
02:00+6wsw358778 0.1 101076
05:00+5wnw5109589 0.3 1012463
08:00+5w4984100 0.6 1013791
11:00+7w7958100 0.3 10141432
14:00+10w794516 0.3 10132271
17:00+8w710515 0.3 10141993
20:00+5wsw510755 0.6 1015428
23 april, fri
fri2323:00+3w410693 0.0 1016285
02:00+2wsw511695 0.0 1016351
05:00+1w6127014 0.0 1017479
08:00+4w586354 0.0 1018561
11:00+8wnw7952100 0.5 10181843
14:00+8w6851100 1.6 10181822
17:00+8wnw71065100 1.1 10181486
20:00+2nnw4995100 3.1 1020545
24 april, sat
sat2423:00+1wnw49885 0.1 1021187
02:00−1w35895 0.2 1021102
05:00−1w36895 0.0 1022134
08:00+3w46745 0.0 1022372
11:00+7wnw6945100 0.1 10222141
14:00+9wnw6936100 0.2 10212819
17:00+9wnw584295 0.0 10192410
20:00+3n487819 0.1 1021212
25 april, sun
sun2523:00+1sw1192100 0.1 102122
02:000nnw348897 0.1 102168
05:00−2wnw23752 0.0 102135
08:00+3w466118 0.0 1021524
11:00+7w6745100 0.1 10202149
14:00+8wnw794599 0.7 10192358
17:00+6wnw7105494 0.6 10191652
20:00+3nnw377677 1.1 1019169
26 april, mon
mon2623:00+1wnw3480100 0.0 102071
02:00−1wnw228618 0.0 101928
05:00−2sw378899 0.0 1019146
08:00+3w61163100 0.0 1018587
11:00+7w71043100 0.0 10172370
14:00+8wnw8104899 0.0 10162081
17:00+8nw796056 0.8 10161537
20:00+3nnw36795 0.9 101785